TITAN 3C TRANSTAGE DEB, 33511

Orbit data source: Space-Track

TITAN 3C TRANSTAGE DEB, 33511 is space debris in GEO originally from a launch on Thu, 26 Sep 1968 UTC launched from the Air Force Eastern Test Range (AFETR). Debris objects in space refer to the collection of defunct objects orbiting the Earth. Examples of debris include non-operational satellites, rocket bodies, and fragments generated from explosions, collisions, or faulty payload assembly.

Loading next visibility...
Identifier
33511, 1968-081M
Orbit
GEO
Country
Flag of USUS
Related business
Manufacturer
Unknown
Mission
Spacecraft
Bus & Motor
Unknown
Mass
Unknown
Launch date (UTC)
1968-09-26 (58 years ago)
Launch vehicle
Unknown
Launch site
Air Force Eastern Test Range (AFETR)
Object type
Payload
Rocket body
Debris
Shape & HBR
Unknown shape, 1.1 m
Radar Cross Section
Medium (>0.1 m² and <1 m²)

Expand to show TLE details & history
Last TLE update: 2 months ago

TLE from 2 months ago
0 TITAN 3C TRANSTAGE DEB
1 33511U 68081M   26185.77097532 -.00000313  00000-0  00000-0 0  9996
2 33511   1.7506  38.8138 0129095 301.8006 311.0606  1.00760662 67591
Epoch: 2026-07-04T18:30Z
TLE epoch observation values (Epoch: 2026-07-04T18:30:12.267Z)
Latitude
-1.68357°
Longitude
90.2162°
Altitude
35,296.256 km
Speed
3.106 km/s
True Right ascension
19h 22m 11s
True Declination
-1° 40' 55"
Sunlit
Object was in daylight at epoch
Visualization orbit readout
Latitude
Unknown
Longitude
Unknown
Altitude
Unknown
Speed
Unknown
Apparent Right ascension
Unknown
Apparent Declination
Unknown
Sunlit
N/A
Visualization observer readout
Local Sidereal Time
06:09:19
Azimuth
Unknown
Elevation
Unknown
Doppler factor
Unknown
Orbital elements
Apogee altitude
36,193.749 km
Perigee altitude
35,108.595 km
Semi-major axis
42,029.309 km
Eccentricity
0.01291
Inclination
1.7506°
RAAN
38.8138°
Arg. of periapsis
301.8006°
True anomaly
309.9333°
Mean anomaly
311.0606°
Eccentric anomaly
310.49814°
Mean motion
0.25189 °/min
Orbital period
1,429.18 mins
BSTAR
0
Loading maneuver chart data...
Computing Atmospheric mass density...

Documentation

Showing up to 5 results
|